Location: Herm
(49.4830°N, 2.4500°W)
Time: 12:11:12
(UTC+01:00)

Tiangong - Visible Passes

Search period start: 03 October 2022 00:00
Search period end: 13 October 2022 00:00
Orbit: 383 x 386 km, 41.5° (Epoch: 03 October)

Date Brightness Start Highest point End Pass type
(mag) Time Alt. Az. Time Alt. Az. Time Alt. Az.
09 Oct 0.5 20:26:24 10° SSW 20:26:47 11° SSW 20:26:47 11° SSW visible
10 Oct 0.3 19:27:50 10° S 19:28:40 11° SSE 19:29:30 10° SE visible
11 Oct -0.1 20:03:04 10° SSW 20:05:13 17° S 20:05:13 17° S visible
12 Oct 0.2 19:03:54 10° SSW 19:05:41 14° SSE 19:07:27 10° SE visible
12 Oct 0.4 20:39:30 10° SW 20:40:28 15° SW 20:40:28 15° SW visible
